Weather History for KOGA - March, 2013

Change the Weather History Date:

Wednesday, March 27, 2013

  Actual Average (KIML) Record (KIML)
Temperature  
Mean Temperature 42 °F 43 °F  
Max Temperature 57 °F 57 °F 85 °F (1988)
Min Temperature 27 °F 29 °F -8 °F (1899)
Degree Days  
Heating Degree Days 23 22  
Month to date heating degree days 693  
Cooling Degree Days 0 0  
Month to date cooling degree days 0  
Year to date cooling degree days 0  
Moisture  
Dew Point 27 °F    
Average Humidity 63    
Maximum Humidity 90    
Minimum Humidity 25    
Precipitation  
Precipitation 0.00 in 0.04 in 1.52 in (1901)
Sea Level Pressure  
Sea Level Pressure 30.07 in    
Wind  
Wind Speed 1 mph (NE)    
Max Wind Speed 6 mph    
Max Gust Speed -    
Visibility 10 miles    
Events      
T = Trace of Precipitation, MM = Missing Value Source: NWS Daily Summary

Daily Weather History Graph

Daily Weather History Graph

Search for Another Location

Airport or City:

Trip Planner

Search our weather history database for the weather conditions in past years. The results will help you decide how hot, cold, wet, or windy it might be!

Date:

Astronomy

Mar. 27, 2013 Rise Set
Actual Time 6:38 AM MDT 7:07 PM MDT
Civil Twilight 6:10 AM MDT 7:34 PM MDT
Nautical Twilight 5:38 AM MDT 8:07 PM MDT
Astronomical Twilight 5:04 AM MDT 8:40 PM MDT
Moon 7:53 PM MDT (3/27) 6:29 AM MDT (3/27)
Length of Visible Light 13h 24m
Length of Day
12h 28m
Full, 100% of the Moon is Illuminated
Mar 27
Full
Apr 2
Last Quarter
Apr 10
New
Apr 18
First Quarter
Apr 25
Full

Hourly Weather History & Observations

Time (MDT) Temp. Windchill Dew Point Humidity Pressure Visibility Wind Dir Wind Speed Gust Speed Precip Events Conditions
12:15 AM 34.5 °F - 27.9 °F 77% 30.05 in 10.0 mi Calm Calm - N/A   Mostly Cloudy
12:35 AM 33.6 °F - 28.2 °F 81% 30.04 in 10.0 mi Calm Calm - N/A   Overcast
12:55 AM 33.1 °F - 28.2 °F 82% 30.04 in 10.0 mi Calm Calm - N/A   Overcast
1:15 AM 33.6 °F - 28.4 °F 81% 30.02 in 10.0 mi Calm Calm - N/A   Overcast
1:35 AM 35.2 °F - 27.5 °F 73% 30.02 in 10.0 mi Calm Calm - N/A   Overcast
1:55 AM 34.7 °F - 27.0 °F 73% 30.02 in 10.0 mi Calm Calm - N/A   Scattered Clouds
2:15 AM 31.8 °F 28.5 °F 26.8 °F 82% 30.02 in 10.0 mi NNE 3.5 mph - N/A   Clear
2:55 AM 29.3 °F 24.3 °F 25.5 °F 86% 30.02 in 10.0 mi NNE 4.6 mph - N/A   Scattered Clouds
3:15 AM 30.2 °F - 26.1 °F 85% 30.01 in 10.0 mi Calm Calm - N/A   Mostly Cloudy
3:35 AM 30.4 °F - 25.9 °F 83% 30.01 in 10.0 mi Calm Calm - N/A   Scattered Clouds
3:55 AM 30.0 °F - 26.4 °F 86% 30.02 in 10.0 mi Calm Calm - N/A   Mostly Cloudy
4:15 AM 29.3 °F 25.6 °F 25.7 °F 86% 30.01 in 10.0 mi East 3.5 mph - N/A   Scattered Clouds
4:35 AM 28.4 °F 24.6 °F 25.0 °F 87% 30.02 in 10.0 mi North 3.5 mph - N/A   Clear
4:55 AM 27.5 °F - 24.8 °F 90% 30.02 in 10.0 mi Calm Calm - N/A   Mostly Cloudy
5:15 AM 28.4 °F 24.6 °F 25.5 °F 89% 30.02 in 10.0 mi East 3.5 mph - N/A   Scattered Clouds
5:35 AM 28.4 °F - 25.9 °F 90% 30.03 in 10.0 mi Calm Calm - N/A   Mostly Cloudy
5:55 AM 29.8 °F 26.3 °F 26.6 °F 88% 30.03 in 10.0 mi NE 3.5 mph - N/A   Overcast
6:15 AM 28.9 °F 25.2 °F 25.7 °F 88% 30.04 in 10.0 mi ENE 3.5 mph - N/A   Scattered Clouds
6:35 AM 28.4 °F - 25.3 °F 88% 30.05 in 10.0 mi Calm Calm - N/A   Scattered Clouds
6:55 AM 27.3 °F 23.4 °F 24.8 °F 90% 30.06 in 10.0 mi ENE 3.5 mph - N/A   Scattered Clouds
7:15 AM 28.4 °F - 25.5 °F 89% 30.07 in 10.0 mi Calm Calm - N/A   Mostly Cloudy
7:35 AM 29.8 °F - 26.4 °F 87% 30.07 in 10.0 mi Calm Calm - N/A   Mostly Cloudy
7:55 AM 31.1 °F - 26.6 °F 83% 30.07 in 10.0 mi Calm Calm - N/A   Overcast
8:15 AM 31.8 °F - 27.0 °F 82% 30.08 in 10.0 mi Calm Calm - N/A   Overcast
8:35 AM 32.7 °F - 27.7 °F 82% 30.09 in 10.0 mi Calm Calm - N/A   Scattered Clouds
8:55 AM 34.7 °F 31.8 °F 28.8 °F 79% 30.09 in 10.0 mi West 3.5 mph - N/A   Mostly Cloudy
9:15 AM 35.1 °F - 28.8 °F 78% 30.09 in 10.0 mi Calm Calm - N/A   Overcast
9:35 AM 35.6 °F 30.7 °F 28.9 °F 77% 30.09 in 10.0 mi WNW 5.8 mph - N/A   Mostly Cloudy
9:55 AM 38.5 °F 36.1 °F 29.5 °F 70% 30.10 in 10.0 mi WNW 3.5 mph - N/A   Scattered Clouds
10:15 AM 41.0 °F 39.0 °F 29.7 °F 64% 30.10 in 10.0 mi North 3.5 mph - N/A   Clear
10:35 AM 43.7 °F 42.1 °F 29.8 °F 58% 30.10 in 10.0 mi NE 3.5 mph - N/A   Scattered Clouds
10:55 AM 42.8 °F - 28.6 °F 57% 30.10 in 10.0 mi Calm Calm - N/A   Overcast
11:15 AM 44.6 °F - 29.3 °F 55% 30.11 in 10.0 mi Calm Calm - N/A   Overcast
11:35 AM 46.9 °F - 29.5 °F 51% 30.11 in 10.0 mi Calm Calm - N/A   Overcast
11:55 AM 47.5 °F - 28.0 °F 47% 30.10 in 10.0 mi Calm Calm - N/A   Mostly Cloudy
12:15 PM 48.7 °F - 28.9 °F 46% 30.10 in 10.0 mi ENE 3.5 mph - N/A   Scattered Clouds
12:35 PM 49.6 °F - 27.9 °F 43% 30.10 in 10.0 mi Calm Calm - N/A   Clear
12:55 PM 50.9 °F - 27.1 °F 40% 30.09 in 10.0 mi Calm Calm - N/A   Clear
1:15 PM 51.8 °F - 25.5 °F 36% 30.09 in 10.0 mi Calm Calm - N/A   Clear
1:35 PM 53.2 °F - 26.2 °F 35% 30.08 in 10.0 mi Calm Calm - N/A   Clear
1:55 PM 53.6 °F - 24.3 °F 32% 30.07 in 10.0 mi Calm Calm - N/A   Clear
2:15 PM 54.7 °F - 22.6 °F 29% 30.07 in 10.0 mi Calm Calm - N/A   Clear
2:35 PM 54.7 °F - 21.9 °F 28% 30.07 in 10.0 mi Calm Calm - N/A   Clear
2:55 PM 56.5 °F - 22.6 °F 27% 30.07 in 10.0 mi East 3.5 mph - N/A   Clear
3:15 PM 56.1 °F - 23.0 °F 28% 30.07 in 10.0 mi NE 5.8 mph - N/A   Clear
3:35 PM 56.7 °F - 23.0 °F 27% 30.06 in 7.0 mi Calm Calm - N/A   Clear
3:55 PM 56.3 °F - 23.0 °F 28% 30.06 in 10.0 mi WNW 3.5 mph - N/A   Clear
4:15 PM 57.2 °F - 22.8 °F 27% 30.06 in 10.0 mi Calm Calm - N/A   Clear
4:35 PM 56.7 °F - 21.6 °F 26% 30.06 in 10.0 mi WSW 4.6 mph - N/A   Clear
4:55 PM 56.5 °F - 22.5 °F 27% 30.06 in 10.0 mi WNW 3.5 mph - N/A   Clear
5:15 PM 56.5 °F - 20.5 °F 25% 30.06 in 10.0 mi Calm Calm - N/A   Clear
5:35 PM 56.5 °F - 21.2 °F 25% 30.06 in 10.0 mi Calm Calm - N/A   Clear
5:55 PM 56.3 °F - 22.1 °F 27% 30.06 in 10.0 mi Calm Calm - N/A   Clear
6:15 PM 55.9 °F - 22.5 °F 27% 30.06 in 10.0 mi ESE 4.6 mph - N/A   Clear
6:35 PM 54.9 °F - 25.2 °F 32% 30.07 in 10.0 mi East 5.8 mph - N/A   Clear
6:55 PM 53.1 °F - 26.4 °F 36% 30.07 in 10.0 mi SE 4.6 mph - N/A   Clear
7:15 PM 50.9 °F - 27.1 °F 40% 30.07 in 10.0 mi SE 4.6 mph - N/A   Clear
7:35 PM 46.8 °F - 28.4 °F 49% 30.08 in 10.0 mi SSE 3.5 mph - N/A   Clear
7:55 PM 45.7 °F 43.4 °F 27.9 °F 50% 30.08 in 10.0 mi South 4.6 mph - N/A   Clear
8:15 PM 42.8 °F 41.1 °F 29.7 °F 60% 30.10 in 10.0 mi WSW 3.5 mph - N/A   Clear
8:35 PM 39.4 °F 35.2 °F 30.7 °F 71% 30.11 in 10.0 mi West 5.8 mph - N/A   Clear
8:55 PM 40.6 °F 37.5 °F 32.7 °F 73% 30.11 in 10.0 mi West 4.6 mph - N/A   Clear
9:15 PM 39.7 °F 36.5 °F 32.0 °F 74% 30.12 in 10.0 mi West 4.6 mph - N/A   Clear
9:35 PM 36.1 °F 33.5 °F 31.5 °F 83% 30.12 in 10.0 mi West 3.5 mph - N/A   Clear
9:55 PM 37.2 °F - 31.6 °F 80% 30.12 in 10.0 mi Calm Calm - N/A   Clear
10:15 PM 36.5 °F - 32.0 °F 84% 30.12 in 10.0 mi Calm Calm - N/A   Clear
10:35 PM 36.0 °F - 31.1 °F 82% 30.13 in 10.0 mi Calm Calm - N/A   Clear
10:55 PM 35.2 °F - 30.4 °F 82% 30.13 in 10.0 mi Calm Calm - N/A   Clear
11:15 PM 34.9 °F - 30.6 °F 84% 30.13 in 10.0 mi Calm Calm - N/A   Clear
11:35 PM 34.0 °F - 30.6 °F 87% 30.13 in 10.0 mi Calm Calm - N/A   Clear
11:55 PM 33.4 °F 28.1 °F 30.0 °F 87% 30.12 in 10.0 mi East 5.8 mph - N/A   Clear